{"data":{"norad_id":59722,"epoch":"2026-09-21T03:54:08.269344Z","epoch_age_seconds":114095,"freshness":"FRESH","line1":"1 59722U 24088Q   26264.16259571  .00008198  00000+0  27601-3 0  9997","line2":"2 59722  53.1630 310.9889 0001344  70.6246 289.4901 15.31659486133626","mean_motion":15.31659486,"eccentricity":0.0001344,"inclination_deg":53.163,"raan_deg":310.9889,"arg_perigee_deg":70.6246,"mean_anomaly_deg":289.4901,"bstar":0.00027601,"rev_number":13362,"period_min":94.015674708523,"perigee_km":469.94026271352,"apogee_km":471.78127331356,"semimajor_km":6848.9977680135,"source":"CELESTRAK","updated_at":"2026-09-22T09:00:49.060183Z"}}